#timestamp,LO_Frequency,Hit,StdDev 
1524610815.0,286046997.7,N
1524610815.9,286046997.7,N
1524610835.8,286046996.8,Y
1524610855.6,286047002.4,P
1524610875.5,286047002.7,N
1524610895.3,286047001.8,N
1524610915.1,286047001.9,N
1524610935.9,286047000.0,N
1524610955.7,286047002.7,N
1524610975.6,286046999.8,N
1524610995.4,286047000.6,N
1524611015.2,286047000.0,N
1524611035.1,286046998.6,N
1524611036.0,286046998.6,N
1524611055.8,286046998.2,N
1524611075.6,286047000.4,N
1524611095.5,286047000.3,N
1524611115.3,286047001.2,N
1524611135.2,286046999.2,N
1524611155.9,286046998.9,N
1524611175.7,286046998.3,N
1524611195.6,286046998.4,N
1524611215.4,286046998.5,N
1524611235.2,286047001.0,N
1524611255.1,286047000.4,N
1524611256.0,286047000.4,N
1524611275.8,286046998.2,N
1524611295.7,286046998.1,N
1524611315.5,286046998.9,N
1524611335.3,286047000.3,N
1524611355.2,286047002.7,N
1524611375.0,286047000.3,N
1524611375.9,286047000.3,N
1524611395.8,286046998.1,N
1524611415.6,286046998.1,N
1524611435.4,286046998.5,N
1524611455.3,286047000.3,N
1524611475.1,286047002.3,N
1524611495.8,286047001.1,N
1524611515.7,286046998.6,N
1524611535.5,286047000.7,N
1524611555.4,286046998.4,N
1524611575.2,286047000.5,N
1524611595.0,286046999.8,N
1524611595.9,286046999.8,N
1524611615.8,286047002.5,N
1524611635.6,286047002.0,N
1524611655.4,286047003.7,N
1524611675.3,286047003.3,N
1524611695.1,286047005.7,Y
1524611715.9,286047005.7,P
1524611735.7,286047003.7,N
1524611755.5,286047005.5,N
1524611775.4,286047004.8,N
1524611795.2,286047005.7,N
1524611815.0,286047006.0,N
1524611816.0,286047006.0,Y
1524611835.8,286047001.2,P
1524611855.6,286046998.8,N
1524611875.5,286046998.9,N
1524611895.3,286046999.2,N
1524611915.1,286046999.4,N
1524611935.9,286046998.8,N
1524611955.7,286047000.9,N
1524611975.6,286046998.1,N
1524611995.4,286046998.4,N
1524612015.2,286047000.9,N
1524612035.1,286047002.8,N
1524612036.0,286047002.8,N
1524612055.8,286047001.2,N
1524612075.6,286046999.8,N
1524612095.5,286047001.0,N
1524612115.3,286046998.6,N
1524612135.2,286046998.2,N
1524612155.9,286046999.9,N
1524612175.7,286047000.7,N
1524612195.6,286047001.1,N
1524612215.4,286046999.3,N
1524612235.2,286046999.1,N
1524612255.1,286047001.1,N
1524612256.0,286047001.1,N
1524612275.8,286047001.2,N
1524612295.7,286047001.0,N
1524612315.5,286046998.7,N
1524612335.3,286046998.1,N
1524612355.2,286046998.7,N
1524612375.0,286046998.9,N
1524612375.9,286046998.9,N
1524612395.7,286046999.1,N
1524612415.6,286046999.2,N
1524612435.4,286046999.4,N
1524612455.3,286047001.2,N
1524612475.1,286046998.9,N
1524612476.0,286046998.9,N
1524612495.8,286046998.9,N
1524612515.7,286047000.5,N
1524612535.5,286047000.8,N
1524612555.3,286046999.6,N
1524612575.2,286046998.9,N
1524612595.0,286046999.4,N
1524612595.9,286046999.4,N
1524612615.8,286046996.8,Y
1524612635.6,286046997.0,P
1524612655.4,286046998.9,N
1524612675.3,286046998.9,N
1524612695.1,286046999.1,N
1524612715.8,286046999.0,N
1524612735.7,286047001.1,N
1524612755.5,286047001.0,N
1524612775.4,286047000.9,N
1524612795.2,286047002.7,N
1524612815.0,286047000.2,N
1524612815.9,286047000.2,N
1524612835.8,286047002.1,N
1524612855.6,286047000.4,N
1524612875.4,286047002.2,N
1524612895.3,286047000.1,N
1524612915.1,286046999.9,N
1524612935.9,286047000.5,N
1524612955.7,286047000.7,N
1524612975.5,286047000.5,N
1524612995.4,286047001.1,N
1524613015.2,286047000.1,N
1524613035.0,286047000.2,N
1524613035.9,286047000.2,N
1524613055.8,286046998.1,N
1524613075.6,286047000.9,N
1524613095.5,286047001.1,N
1524613115.3,286047001.0,N
1524613135.1,286047000.8,N
1524613155.9,286047001.0,N
1524613175.7,286047000.9,N
1524613195.5,286047002.0,N
1524613215.4,286047000.5,N
1524613235.2,286047002.1,N
1524613255.1,286047003.5,Y
1524613256.0,286047003.5,P
1524613275.8,286047004.0,N
1524613295.6,286047004.2,N
1524613315.5,286047001.9,N
1524613335.3,286047000.1,N
1524613355.2,286047002.7,N
1524613375.9,286047000.8,N
1524613395.7,286047000.5,N
1524613415.6,286047002.1,N
1524613435.4,286047001.1,N
1524613455.2,286047001.0,N
1524613475.1,286047000.9,N
1524613476.0,286047000.9,N
1524613495.8,286047000.3,N
1524613515.7,286047001.9,N
1524613535.5,286047001.5,N
1524613555.3,286047000.4,N
1524613575.2,286047000.6,N
1524613595.0,286047000.9,N
1524613595.9,286047000.9,N
1524613615.7,286047000.4,N
1524613635.6,286046999.8,N
1524613655.4,286046999.8,N
1524613675.3,286047002.1,N
1524613695.1,286047001.5,N
1524613696.0,286047001.5,N
1524613715.8,286047001.9,N
1524613735.7,286047001.6,N
1524613755.5,286047001.9,N
1524613775.3,286047001.6,N
1524613795.2,286046999.8,N
1524613815.0,286046999.7,N
1524613815.9,286046999.7,N
1524613835.8,286047000.2,N
1524613855.6,286046999.8,N
1524613875.4,286047002.4,N
1524613895.3,286047001.6,N
1524613915.1,286047000.1,N
1524613935.8,286046999.9,N
1524613955.7,286047001.1,N
1524613975.5,286046999.4,N
1524613995.4,286046996.6,Y
1524614015.2,286046999.5,P
1524614035.0,286046998.3,N
1524614035.9,286046998.3,N
1524614055.8,286046998.1,N
1524614075.6,286046998.1,N
1524614095.5,286047000.7,N
1524614115.3,286047000.8,N
1524614135.1,286047001.0,N
1524614155.9,286047001.6,N
1524614175.7,286046999.8,N
1524614195.5,286046998.5,N
1524614215.4,286047000.8,N
1524614235.2,286046998.5,N
1524614255.1,286047000.7,N
1524614256.0,286047000.7,N
1524614275.8,286046999.9,N
1524614295.6,286047002.4,N
1524614315.5,286047002.6,N
1524614335.3,286047000.8,N
1524614355.2,286046999.0,N
1524614375.9,286046998.5,N
1524614395.7,286046998.3,N
